Retour au catalogue

COSMOS 1823 DEB

ActifLEO
NORAD 18730·DEBRIS·🇷🇺 Russia

Lancé Feb 20, 1987 depuis Plesetsk Cosmodrome

Loading…

Prochains Passages (prochaines 24 heures)

TLE

FraisSource: Space-Track

Époque: Sep 14, 2026, 06:15 UTC

1 18730U 87020H   26257.26074359 -.00000091  00000-0 -74953-3 0  9997
2 18730  73.9339 182.8925 0183202 294.3674 221.8635 12.13477306715443

Suivez COSMOS 1823 DEB en temps réel avec AllMySat

Download on the App Store